START_TIME,STEP,MOV.,M34,t_acc.,L5,t_acc.,L18,t_acc.,L14,t_acc.
1979-07-26 21:00:24.010 ,0,0,0.,12.0,0.,12.0,0.,12.0,0.,12.0
1979-07-26 21:00:36.010 ,0,0,0.,12.0,0.,12.0,0.,12.0,0.,12.0
1979-07-26 21:00:48.010 ,0,1,0.,12.0,0.,12.0,0.,12.0,0.,12.0
1979-07-26 21:01:00.010 ,0,1,0.,12.0,0.,12.0,0.,12.0,0.,12.0
1979-07-26 21:01:12.000 ,0,0,0.,12.0,0.,12.0,0.,12.0,0.,12.0
1979-07-26 21:01:24.010 ,0,0,0.,12.0,0.,12.0,0.,12.0,0.,12.0
1979-07-26 21:01:36.010 ,1,1,0.,12.0,0.,12.0,0.,12.0,0.,12.0
1979-07-26 21:01:48.010 ,1,1,0.,12.0,0.,12.0,0.,12.0,0.,12.0
1979-07-26 21:02:00.000 ,1,0,0.,12.0,0.,12.0,0.,12.0,0.,12.0
1979-07-26 21:02:12.010 ,1,0,0.,12.0,0.,12.0,0.,12.0,0.,12.0
1979-07-26 21:02:24.000 ,2,1,0.,12.0,0.,12.0,0.,12.0,0.,12.0
1979-07-26 21:02:36.010 ,2,1,0.,12.0,0.,12.0,0.,12.0,0.,12.0
1979-07-26 21:02:48.000 ,2,0,0.,12.0,0.,12.0,0.,12.0,0.,12.0
1979-07-26 21:03:00.010 ,2,0,0.,12.0,0.,12.0,0.,12.0,0.,12.0
1979-07-26 21:03:12.000 ,3,1,0.,12.0,0.,12.0,0.,12.0,0.,12.0
1979-07-26 21:03:24.010 ,3,1,0.,12.0,0.,12.0,0.,12.0,0.,12.0
1979-07-26 21:03:36.000 ,3,0,0.,12.0,0.,12.0,0.,12.0,0.,12.0
1979-07-26 21:03:48.010 ,3,0,0.,12.0,0.,12.0,0.,12.0,0.,12.0
1979-07-26 21:04:00.000 ,4,1,0.,12.0,0.,12.0,0.,12.0,0.,12.0
1979-07-26 21:04:12.000 ,4,1,0.,12.0,0.,12.0,0.,12.0,0.,12.0
1979-07-26 21:04:24.010 ,4,0,0.,12.0,0.,12.0,0.,12.0,0.,12.0
1979-07-26 21:04:36.010 ,4,0,0.,12.0,0.,12.0,0.,12.0,0.,12.0
1979-07-26 21:04:48.010 ,5,1,0.,12.0,0.,12.0,0.,12.0,0.,12.0
1979-07-26 21:05:00.010 ,5,1,0.,12.0,0.,12.0,0.,12.0,0.,12.0
1979-07-26 21:05:12.010 ,5,0,0.,12.0,0.,12.0,0.,12.0,0.,12.0
1979-07-26 21:05:24.010 ,5,0,0.,12.0,0.,12.0,0.,12.0,0.,12.0
1979-07-26 21:05:36.010 ,6,1,0.,12.0,0.,12.0,0.,12.0,0.,12.0
1979-07-26 21:05:48.010 ,6,1,0.,12.0,0.,12.0,0.,12.0,0.,12.0
1979-07-26 21:06:00.010 ,6,0,0.,12.0,0.,12.0,0.,12.0,0.,12.0
1979-07-26 21:06:12.010 ,6,0,0.,12.0,0.,12.0,0.,12.0,0.,12.0
1979-07-26 21:06:24.010 ,7,0,0.,12.0,0.,12.0,0.,12.0,0.,12.0
1979-07-26 21:06:36.010 ,7,0,0.,12.0,0.,12.0,0.,12.0,0.,12.0
1979-07-26 21:06:48.010 ,7,0,0.,12.0,0.,12.0,0.,12.0,0.,12.0
1979-07-26 21:07:00.010 ,7,0,0.,12.0,0.,12.0,0.,12.0,0.,12.0
1979-07-26 21:07:12.010 ,4,1,0.,12.0,0.,12.0,0.,12.0,0.,12.0
1979-07-26 21:07:24.010 ,4,1,0.,12.0,0.,12.0,0.,12.0,0.,12.0
1979-07-26 21:07:36.010 ,0,1,0.,12.0,0.,12.0,0.,12.0,0.,12.0
1979-07-26 21:07:48.010 ,0,1,0.,12.0,0.,12.0,0.,12.0,0.,12.0
1979-07-26 21:08:00.010 ,3,1,0.,12.0,0.,12.0,0.,12.0,0.,12.0
1979-07-26 21:08:12.010 ,3,1,0.,12.0,0.,12.0,0.,12.0,0.,12.0
1979-07-26 21:08:24.010 ,7,1,0.,12.0,0.,12.0,0.,12.0,0.,12.0
1979-07-26 21:08:36.010 ,7,1,0.,12.0,0.,12.0,0.,12.0,0.,12.0
1979-07-26 21:08:48.010 ,4,1,0.,12.0,0.,12.0,0.,12.0,0.,12.0
1979-07-26 21:09:00.010 ,4,1,0.,12.0,0.,12.0,0.,12.0,0.,12.0
1979-07-26 21:09:12.010 ,0,1,0.,12.0,0.,12.0,0.,12.0,0.,12.0
1979-07-26 21:09:24.010 ,0,1,0.,12.0,0.,12.0,0.,12.0,0.,12.0
1979-07-26 21:09:36.010 ,3,1,0.,12.0,0.,12.0,0.,12.0,0.,12.0
1979-07-26 21:09:48.010 ,3,1,0.,12.0,0.,12.0,0.,12.0,0.,12.0
1979-07-26 21:10:00.010 ,7,1,0.,12.0,0.,12.0,0.,12.0,0.,12.0
1979-07-26 21:10:12.010 ,7,1,0.,12.0,0.,12.0,0.,12.0,0.,12.0
1979-07-26 21:10:24.010 ,4,1,0.,12.0,0.,12.0,0.,12.0,0.,12.0
1979-07-26 21:10:36.010 ,4,1,0.,12.0,0.,12.0,0.,12.0,0.,12.0
1979-07-26 21:10:48.010 ,0,1,0.,12.0,0.,12.0,0.,12.0,0.,12.0
1979-07-26 21:11:00.010 ,0,1,0.,12.0,0.,12.0,0.,12.0,0.,12.0
1979-07-26 21:11:12.010 ,3,1,0.,12.0,0.,12.0,0.,12.0,0.,12.0
1979-07-26 21:11:24.010 ,3,1,0.,12.0,0.,12.0,0.,12.0,0.,12.0
1979-07-26 21:11:36.010 ,7,1,0.,12.0,0.,12.0,0.,12.0,0.,12.0
1979-07-26 21:11:48.010 ,7,1,0.,12.0,0.,12.0,0.,12.0,0.,12.0
1979-07-26 21:12:00.000 ,4,1,0.,12.0,0.,12.0,0.,12.0,0.,12.0
1979-07-26 21:12:12.000 ,4,1,0.,12.0,0.,12.0,0.,12.0,0.,12.0
1979-07-26 21:12:24.000 ,0,1,0.,12.0,0.,12.0,0.,12.0,0.,12.0
1979-07-26 21:12:36.000 ,0,1,0.,12.0,0.,12.0,0.,12.0,0.,12.0
1979-07-26 21:12:48.000 ,3,1,0.,12.0,0.,12.0,0.,12.0,0.,12.0
1979-07-26 21:13:00.000 ,3,1,0.,12.0,0.,12.0,0.,12.0,0.,12.0
1979-07-26 21:13:12.000 ,7,1,0.,12.0,0.,12.0,0.,12.0,0.,12.0
1979-07-26 21:13:24.000 ,7,1,0.,12.0,0.,12.0,0.,12.0,0.,12.0
1979-07-26 21:13:36.000 ,4,1,0.,12.0,0.,12.0,0.,12.0,0.,12.0
1979-07-26 21:13:48.000 ,4,1,0.,12.0,0.,12.0,0.,12.0,0.,12.0
1979-07-26 21:14:00.000 ,0,1,0.,12.0,0.,12.0,0.,12.0,0.,12.0
1979-07-26 21:14:12.000 ,0,1,0.,12.0,0.,12.0,0.,12.0,0.,12.0
1979-07-26 21:14:24.000 ,3,1,0.,12.0,0.,12.0,0.,12.0,0.,12.0
1979-07-26 21:14:36.000 ,3,1,0.,12.0,0.,12.0,0.,12.0,0.,12.0
1979-07-26 21:14:48.000 ,7,1,0.,12.0,0.,12.0,0.,12.0,0.,12.0
1979-07-26 21:15:00.000 ,7,1,0.,12.0,0.,12.0,0.,12.0,0.,12.0
1979-07-26 21:15:12.000 ,4,1,0.,12.0,0.,12.0,0.,12.0,0.,12.0
1979-07-26 21:15:24.000 ,4,1,0.,12.0,0.,12.0,0.,12.0,0.,12.0
1979-07-26 21:15:36.000 ,0,1,0.,12.0,0.,12.0,0.,12.0,0.,12.0
1979-07-26 21:15:48.000 ,0,1,0.,12.0,0.,12.0,0.,12.0,0.,12.0
1979-07-26 21:16:00.000 ,3,1,0.,12.0,0.,12.0,0.,12.0,0.,12.0
1979-07-26 21:16:12.000 ,3,1,0.,12.0,0.,12.0,0.,12.0,0.,12.0
1979-07-26 21:16:24.000 ,7,1,0.,12.0,0.,12.0,0.,12.0,0.,12.0
1979-07-26 21:16:36.000 ,7,1,0.,12.0,0.,12.0,0.,12.0,0.,12.0
1979-07-26 21:16:48.000 ,4,1,0.,12.0,0.,12.0,0.,12.0,0.,12.0
1979-07-26 21:17:00.000 ,4,1,0.,12.0,0.,12.0,0.,12.0,0.,12.0
1979-07-26 21:17:12.000 ,0,1,0.,12.0,0.,12.0,0.,12.0,0.,12.0
1979-07-26 21:17:24.000 ,0,1,0.,12.0,0.,12.0,0.,12.0,0.,12.0
1979-07-26 21:17:36.000 ,0,0,0.,12.0,0.,12.0,0.,12.0,0.,12.0
1979-07-26 21:17:48.000 ,0,0,0.,12.0,0.,12.0,0.,12.0,0.,12.0
1979-07-26 21:18:00.000 ,0,0,0.,12.0,0.,12.0,0.,12.0,0.,12.0
1979-07-26 21:18:12.000 ,0,0,0.,12.0,0.,12.0,0.,12.0,0.,12.0
1979-07-26 21:18:24.000 ,5,1,0.,12.0,0.,12.0,0.,12.0,0.,12.0
1979-07-26 21:18:36.000 ,5,1,0.,12.0,0.,12.0,0.,12.0,0.,12.0
1979-07-26 21:18:48.000 ,5,0,0.,12.0,0.,12.0,0.,12.0,0.,12.0
1979-07-26 21:19:00.000 ,5,0,0.,12.0,0.,12.0,0.,12.0,0.,12.0
1979-07-26 21:19:12.000 ,4,1,0.,12.0,0.,12.0,0.,12.0,0.,12.0
1979-07-26 21:19:24.000 ,4,1,0.,12.0,0.,12.0,0.,12.0,0.,12.0
1979-07-26 21:19:36.000 ,4,0,0.,12.0,0.,12.0,0.,12.0,0.,12.0
1979-07-26 21:19:48.000 ,4,0,0.,12.0,0.,12.0,0.,12.0,0.,12.0
1979-07-26 21:20:00.000 ,3,1,0.,12.0,0.,12.0,0.,12.0,0.,12.0
1979-07-26 21:20:12.000 ,3,1,0.,12.0,0.,12.0,0.,12.0,0.,12.0
1979-07-26 21:20:24.000 ,3,0,0.,12.0,0.,12.0,0.,12.0,0.,12.0
1979-07-26 21:20:36.000 ,3,0,0.,12.0,0.,12.0,0.,12.0,0.,12.0
1979-07-26 21:20:48.000 ,2,1,0.,12.0,0.,12.0,0.,12.0,0.,12.0
1979-07-26 21:21:00.000 ,2,1,0.,12.0,0.,12.0,0.,12.0,0.,12.0
1979-07-26 21:21:12.000 ,2,0,0.,12.0,0.,12.0,0.,12.0,0.,12.0
1979-07-26 21:21:24.000 ,2,0,0.,12.0,0.,12.0,0.,12.0,0.,12.0
1979-07-26 21:21:36.000 ,1,1,0.,12.0,0.,12.0,0.,12.0,0.,12.0
1979-07-26 21:21:48.000 ,1,1,0.,12.0,0.,12.0,0.,12.0,0.,12.0
1979-07-26 21:22:00.000 ,1,0,0.,12.0,0.,12.0,0.,12.0,0.,12.0
1979-07-26 21:22:12.000 ,1,0,0.,12.0,0.,12.0,0.,12.0,0.,12.0
1979-07-26 21:22:24.000 ,0,1,0.,12.0,0.,12.0,0.,12.0,0.,12.0
1979-07-26 21:22:36.000 ,0,1,0.,12.0,0.,12.0,0.,12.0,0.,12.0
1979-07-26 21:22:48.000 ,0,0,0.,12.0,0.,12.0,0.,12.0,0.,12.0
1979-07-26 21:23:00.000 ,0,0,0.,12.0,0.,12.0,0.,12.0,0.,12.0
1979-07-26 21:23:12.000 ,0,1,0.,12.0,0.,12.0,0.,12.0,0.,12.0
1979-07-26 21:23:24.000 ,0,1,0.,12.0,0.,12.0,0.,12.0,0.,12.0
1979-07-26 21:23:36.000 ,0,0,0.,12.0,0.,12.0,0.,12.0,0.,12.0
1979-07-26 21:23:48.000 ,0,0,0.,12.0,0.,12.0,0.,12.0,0.,12.0
1979-07-26 21:24:00.000 ,1,1,0.,12.0,0.,12.0,0.,12.0,0.,12.0
1979-07-26 21:24:12.000 ,1,1,0.,12.0,0.,12.0,0.,12.0,0.,12.0
1979-07-26 21:24:24.000 ,1,0,0.,12.0,0.,12.0,0.,12.0,0.,12.0
1979-07-26 21:24:36.000 ,1,0,0.,12.0,0.,12.0,0.,12.0,0.,12.0
1979-07-26 21:24:48.000 ,2,1,0.,12.0,0.,12.0,0.,12.0,0.,12.0
1979-07-26 21:25:00.000 ,2,1,0.,12.0,0.,12.0,0.,12.0,0.,12.0
1979-07-26 21:25:12.000 ,2,0,0.,12.0,0.,12.0,0.,12.0,0.,12.0
1979-07-26 21:25:24.000 ,2,0,0.,12.0,0.,12.0,0.,12.0,0.,12.0
1979-07-26 21:25:36.000 ,3,1,0.,12.0,0.,12.0,0.,12.0,0.,12.0
1979-07-26 21:25:48.000 ,3,1,0.,12.0,0.,12.0,0.,12.0,0.,12.0
1979-07-26 21:26:00.000 ,3,0,0.,12.0,0.,12.0,0.,12.0,0.,12.0
1979-07-26 21:26:12.000 ,3,0,0.,12.0,0.,12.0,0.,12.0,0.,12.0
1979-07-26 21:26:24.000 ,4,1,0.,12.0,0.,12.0,0.,12.0,0.,12.0
1979-07-26 21:26:36.000 ,4,1,0.,12.0,0.,12.0,0.,12.0,0.,12.0
1979-07-26 21:26:48.000 ,4,0,0.,12.0,0.,12.0,0.,12.0,0.,12.0
1979-07-26 21:27:00.000 ,4,0,0.,12.0,0.,12.0,0.,12.0,0.,12.0
1979-07-26 21:27:12.000 ,5,1,1.,12.0,0.,12.0,0.,12.0,0.,12.0
1979-07-26 21:27:24.000 ,5,1,0.,12.0,0.,12.0,0.,12.0,0.,12.0
1979-07-26 21:27:36.000 ,5,0,0.,12.0,0.,12.0,0.,12.0,0.,12.0
1979-07-26 21:27:48.000 ,5,0,0.,12.0,0.,12.0,0.,12.0,0.,12.0
1979-07-26 21:28:00.000 ,6,1,0.,12.0,0.,12.0,0.,12.0,0.,12.0
1979-07-26 21:28:12.000 ,6,1,0.,12.0,0.,12.0,0.,12.0,0.,12.0
1979-07-26 21:28:24.000 ,6,0,0.,12.0,0.,12.0,0.,12.0,0.,12.0
1979-07-26 21:28:36.000 ,6,0,0.,12.0,0.,12.0,0.,12.0,0.,12.0
1979-07-26 21:28:48.000 ,7,1,0.,12.0,0.,12.0,0.,12.0,0.,12.0
1979-07-26 21:29:00.000 ,7,1,0.,12.0,0.,12.0,0.,12.0,0.,12.0
1979-07-26 21:29:12.000 ,7,0,0.,12.0,0.,12.0,0.,12.0,0.,12.0
1979-07-26 21:29:24.000 ,7,0,0.,12.0,0.,12.0,0.,12.0,0.,12.0
1979-07-26 21:29:36.000 ,7,1,0.,12.0,0.,12.0,0.,12.0,0.,12.0
1979-07-26 21:29:48.000 ,7,1,0.,12.0,0.,12.0,0.,12.0,0.,12.0
1979-07-26 21:30:00.000 ,7,0,0.,12.0,0.,12.0,0.,12.0,0.,12.0
1979-07-26 21:30:12.000 ,7,0,0.,12.0,0.,12.0,0.,12.0,0.,12.0
1979-07-26 21:30:24.000 ,6,1,0.,12.0,0.,12.0,0.,12.0,0.,12.0
1979-07-26 21:30:36.000 ,6,1,0.,12.0,0.,12.0,0.,12.0,0.,12.0
1979-07-26 21:30:48.000 ,6,0,0.,12.0,0.,12.0,0.,12.0,0.,12.0
1979-07-26 21:31:00.000 ,6,0,0.,12.0,0.,12.0,0.,12.0,0.,12.0
1979-07-26 21:31:12.000 ,5,1,0.,12.0,0.,12.0,0.,12.0,0.,12.0
1979-07-26 21:31:24.000 ,5,1,0.,12.0,0.,12.0,0.,12.0,0.,12.0
1979-07-26 21:31:36.000 ,5,0,0.,12.0,0.,12.0,0.,12.0,0.,12.0
1979-07-26 21:31:48.000 ,5,0,0.,12.0,0.,12.0,0.,12.0,0.,12.0
1979-07-26 21:32:00.000 ,4,1,0.,12.0,0.,12.0,0.,12.0,0.,12.0
1979-07-26 21:32:12.000 ,4,1,0.,12.0,0.,12.0,0.,12.0,0.,12.0
1979-07-26 21:32:24.000 ,4,0,0.,12.0,0.,12.0,0.,12.0,0.,12.0
1979-07-26 21:32:36.000 ,4,0,0.,12.0,0.,12.0,0.,12.0,0.,12.0
1979-07-26 21:32:48.000 ,3,1,0.,12.0,0.,12.0,0.,12.0,0.,12.0
1979-07-26 21:33:00.000 ,3,1,0.,12.0,0.,12.0,0.,12.0,0.,12.0
1979-07-26 21:33:12.000 ,3,0,0.,12.0,0.,12.0,0.,12.0,0.,12.0
1979-07-26 21:33:24.000 ,3,0,0.,12.0,0.,12.0,0.,12.0,0.,12.0
1979-07-26 21:33:36.000 ,2,1,0.,12.0,0.,12.0,0.,12.0,0.,12.0
1979-07-26 21:33:48.000 ,2,1,0.,12.0,0.,12.0,0.,12.0,0.,12.0
1979-07-26 21:34:00.000 ,2,0,0.,12.0,0.,12.0,0.,12.0,0.,12.0
1979-07-26 21:34:12.000 ,2,0,0.,12.0,0.,12.0,0.,12.0,0.,12.0
1979-07-26 21:34:24.000 ,1,1,0.,12.0,0.,12.0,0.,12.0,0.,12.0
1979-07-26 21:34:36.000 ,1,1,0.,12.0,0.,12.0,0.,12.0,0.,12.0
1979-07-26 21:34:48.000 ,1,0,0.,12.0,0.,12.0,0.,12.0,0.,12.0
1979-07-26 21:35:00.000 ,1,0,0.,12.0,0.,12.0,0.,12.0,0.,12.0
1979-07-26 21:35:12.000 ,0,1,0.,12.0,0.,12.0,0.,12.0,0.,12.0
1979-07-26 21:35:24.000 ,0,1,0.,12.0,0.,12.0,0.,12.0,0.,12.0
1979-07-26 21:35:36.000 ,0,0,0.,12.0,0.,12.0,0.,12.0,0.,12.0
1979-07-26 21:35:48.000 ,0,0,0.,12.0,0.,12.0,0.,12.0,0.,12.0
1979-07-26 21:36:00.000 ,0,1,0.,12.0,0.,12.0,0.,12.0,0.,12.0
1979-07-26 21:36:12.000 ,0,1,0.,12.0,0.,12.0,0.,12.0,0.,12.0
1979-07-26 21:36:24.000 ,0,0,0.,12.0,0.,12.0,0.,12.0,0.,12.0
1979-07-26 21:36:36.000 ,0,0,0.,12.0,0.,12.0,0.,12.0,0.,12.0
1979-07-26 21:36:48.000 ,1,1,0.,12.0,0.,12.0,0.,12.0,0.,12.0
1979-07-26 21:37:00.000 ,1,1,0.,12.0,0.,12.0,0.,12.0,0.,12.0
1979-07-26 21:37:12.000 ,1,0,0.,12.0,0.,12.0,0.,12.0,0.,12.0
1979-07-26 21:37:24.000 ,1,0,0.,12.0,0.,12.0,0.,12.0,0.,12.0
1979-07-26 21:37:36.000 ,2,1,0.,12.0,0.,12.0,0.,12.0,0.,12.0
1979-07-26 21:37:48.000 ,2,1,0.,12.0,0.,12.0,0.,12.0,0.,12.0
1979-07-26 21:38:00.000 ,2,0,0.,12.0,0.,12.0,0.,12.0,0.,12.0
1979-07-26 21:38:12.000 ,2,0,0.,12.0,0.,12.0,0.,12.0,0.,12.0
1979-07-26 21:38:24.000 ,3,1,0.,12.0,0.,12.0,0.,12.0,0.,12.0
1979-07-26 21:38:36.000 ,3,1,0.,12.0,0.,12.0,0.,12.0,0.,12.0
1979-07-26 21:38:48.000 ,3,0,0.,12.0,0.,12.0,0.,12.0,0.,12.0
1979-07-26 21:39:00.000 ,3,0,0.,12.0,0.,12.0,0.,12.0,0.,12.0
1979-07-26 21:39:12.000 ,4,1,0.,12.0,0.,12.0,0.,12.0,0.,12.0
1979-07-26 21:39:24.000 ,4,1,0.,12.0,0.,12.0,0.,12.0,0.,12.0
1979-07-26 21:39:36.000 ,4,0,0.,12.0,0.,12.0,0.,12.0,0.,12.0
1979-07-26 21:39:48.000 ,4,0,0.,12.0,0.,12.0,0.,12.0,0.,12.0
1979-07-26 21:40:00.000 ,5,1,0.,12.0,0.,12.0,0.,12.0,0.,12.0
1979-07-26 21:40:12.000 ,5,1,0.,12.0,0.,12.0,0.,12.0,0.,12.0
1979-07-26 21:40:24.000 ,5,0,0.,12.0,0.,12.0,0.,12.0,0.,12.0
1979-07-26 21:40:36.000 ,5,0,0.,12.0,0.,12.0,0.,12.0,0.,12.0
1979-07-26 21:40:48.000 ,6,1,0.,12.0,0.,12.0,0.,12.0,0.,12.0
1979-07-26 21:41:00.000 ,6,1,0.,12.0,0.,12.0,0.,12.0,0.,12.0
1979-07-26 21:41:12.000 ,6,0,0.,12.0,0.,12.0,0.,12.0,0.,12.0
1979-07-26 21:41:24.000 ,6,0,0.,12.0,0.,12.0,0.,12.0,0.,12.0
1979-07-26 21:41:36.000 ,7,1,0.,12.0,0.,12.0,0.,12.0,0.,12.0
1979-07-26 21:41:48.000 ,7,1,0.,12.0,0.,12.0,0.,12.0,0.,12.0
1979-07-26 21:42:00.000 ,7,0,0.,12.0,0.,12.0,0.,12.0,0.,12.0
1979-07-26 21:42:12.000 ,7,0,0.,12.0,0.,12.0,0.,12.0,0.,12.0
1979-07-26 21:42:24.000 ,7,1,0.,12.0,0.,12.0,0.,12.0,0.,12.0
1979-07-26 21:42:36.000 ,7,1,0.,12.0,0.,12.0,0.,12.0,0.,12.0
1979-07-26 21:42:48.000 ,7,0,0.,12.0,0.,12.0,0.,12.0,0.,12.0
1979-07-26 21:43:00.000 ,7,0,0.,12.0,0.,12.0,0.,12.0,0.,12.0
1979-07-26 21:43:12.000 ,6,1,0.,12.0,0.,12.0,0.,12.0,0.,12.0
1979-07-26 21:43:24.000 ,6,1,0.,12.0,0.,12.0,0.,12.0,0.,12.0
1979-07-26 21:43:36.000 ,6,0,0.,12.0,0.,12.0,0.,12.0,0.,12.0
1979-07-26 21:43:48.000 ,6,0,0.,12.0,0.,12.0,0.,12.0,0.,12.0
1979-07-26 21:44:00.000 ,5,1,0.,12.0,0.,12.0,0.,12.0,0.,12.0
1979-07-26 21:44:12.000 ,5,1,0.,12.0,0.,12.0,0.,12.0,0.,12.0
1979-07-26 21:44:24.000 ,5,0,0.,12.0,0.,12.0,0.,12.0,0.,12.0
1979-07-26 21:44:36.000 ,5,0,0.,12.0,0.,12.0,0.,12.0,0.,12.0
1979-07-26 21:44:48.000 ,4,1,0.,12.0,0.,12.0,0.,12.0,0.,12.0
1979-07-26 21:45:00.000 ,4,1,0.,12.0,0.,12.0,0.,12.0,0.,12.0
1979-07-26 21:45:12.000 ,4,0,0.,12.0,0.,12.0,0.,12.0,0.,12.0
1979-07-26 21:45:24.000 ,4,0,0.,12.0,0.,12.0,0.,12.0,0.,12.0
1979-07-26 21:45:36.000 ,3,1,0.,12.0,0.,12.0,0.,12.0,0.,12.0
1979-07-26 21:45:48.000 ,3,1,0.,12.0,0.,12.0,0.,12.0,0.,12.0
1979-07-26 21:46:00.000 ,3,0,0.,12.0,0.,12.0,0.,12.0,0.,12.0
1979-07-26 21:46:12.000 ,3,0,0.,12.0,0.,12.0,0.,12.0,0.,12.0
1979-07-26 21:46:24.000 ,2,1,0.,12.0,0.,12.0,0.,12.0,0.,12.0
1979-07-26 21:46:36.000 ,2,1,0.,12.0,0.,12.0,0.,12.0,0.,12.0
1979-07-26 21:46:48.000 ,2,0,0.,12.0,0.,12.0,0.,12.0,0.,12.0
1979-07-26 21:47:00.000 ,2,0,0.,12.0,0.,12.0,0.,12.0,0.,12.0
1979-07-26 21:47:12.000 ,1,1,0.,12.0,0.,12.0,0.,12.0,0.,12.0
1979-07-26 21:47:24.000 ,1,1,0.,12.0,0.,12.0,0.,12.0,1.,12.0
1979-07-26 21:47:36.000 ,1,0,0.,12.0,0.,12.0,0.,12.0,0.,12.0
1979-07-26 21:47:48.000 ,1,0,0.,12.0,0.,12.0,0.,12.0,0.,12.0
1979-07-26 21:48:00.000 ,0,1,0.,12.0,0.,12.0,0.,12.0,0.,12.0
1979-07-26 21:48:12.000 ,0,1,0.,12.0,0.,12.0,0.,12.0,0.,12.0
1979-07-26 21:48:24.000 ,0,0,0.,12.0,0.,12.0,0.,12.0,0.,12.0
1979-07-26 21:48:36.000 ,0,0,0.,12.0,0.,12.0,0.,12.0,0.,12.0
1979-07-26 21:48:48.000 ,0,1,0.,12.0,0.,12.0,0.,12.0,0.,12.0
1979-07-26 21:49:00.000 ,0,1,0.,12.0,0.,12.0,0.,12.0,0.,12.0
1979-07-26 21:49:12.000 ,0,0,0.,12.0,0.,12.0,0.,12.0,0.,12.0
1979-07-26 21:49:24.000 ,0,0,0.,12.0,0.,12.0,0.,12.0,0.,12.0
1979-07-26 21:49:36.000 ,1,1,0.,12.0,0.,12.0,0.,12.0,0.,12.0
1979-07-26 21:49:48.000 ,1,1,0.,12.0,0.,12.0,0.,12.0,0.,12.0
1979-07-26 21:50:00.000 ,1,0,0.,12.0,0.,12.0,0.,12.0,0.,12.0
1979-07-26 21:50:12.000 ,1,0,0.,12.0,0.,12.0,0.,12.0,0.,12.0
1979-07-26 21:50:24.000 ,2,1,0.,12.0,0.,12.0,0.,12.0,0.,12.0
1979-07-26 21:50:36.000 ,2,1,0.,12.0,0.,12.0,0.,12.0,0.,12.0
1979-07-26 21:50:48.000 ,2,0,0.,12.0,0.,12.0,0.,12.0,0.,12.0
1979-07-26 21:51:00.000 ,2,0,0.,12.0,0.,12.0,0.,12.0,0.,12.0
1979-07-26 21:51:12.000 ,3,1,0.,12.0,0.,12.0,0.,12.0,0.,12.0
1979-07-26 21:51:24.000 ,3,1,0.,12.0,0.,12.0,0.,12.0,0.,12.0
1979-07-26 21:51:36.000 ,3,0,0.,12.0,0.,12.0,0.,12.0,0.,12.0
1979-07-26 21:51:48.000 ,3,0,0.,12.0,0.,12.0,0.,12.0,0.,12.0
1979-07-26 21:52:00.000 ,4,1,0.,12.0,0.,12.0,0.,12.0,0.,12.0
1979-07-26 21:52:12.000 ,4,1,0.,12.0,0.,12.0,0.,12.0,0.,12.0
1979-07-26 21:52:24.000 ,4,0,0.,12.0,0.,12.0,0.,12.0,0.,12.0
1979-07-26 21:52:36.000 ,4,0,0.,12.0,0.,12.0,0.,12.0,0.,12.0
1979-07-26 21:52:48.000 ,5,1,0.,12.0,0.,12.0,0.,12.0,0.,12.0
1979-07-26 21:53:00.000 ,5,1,0.,12.0,0.,12.0,0.,12.0,0.,12.0
1979-07-26 21:53:12.000 ,5,0,0.,12.0,0.,12.0,0.,12.0,0.,12.0
1979-07-26 21:53:24.000 ,5,0,0.,12.0,0.,12.0,0.,12.0,0.,12.0
1979-07-26 21:53:36.000 ,6,1,0.,12.0,0.,12.0,0.,12.0,0.,12.0
1979-07-26 21:53:48.000 ,6,1,0.,12.0,0.,12.0,0.,12.0,0.,12.0
1979-07-26 21:54:00.000 ,6,0,0.,12.0,0.,12.0,0.,12.0,0.,12.0
1979-07-26 21:54:12.000 ,6,0,0.,12.0,0.,12.0,0.,12.0,0.,12.0
1979-07-26 21:54:24.000 ,7,0,0.,12.0,0.,12.0,0.,12.0,0.,12.0
1979-07-26 21:54:36.000 ,7,0,0.,12.0,0.,12.0,0.,12.0,0.,12.0
1979-07-26 21:54:48.000 ,7,0,0.,12.0,0.,12.0,0.,12.0,0.,12.0
1979-07-26 21:55:00.000 ,7,0,0.,12.0,0.,12.0,0.,12.0,0.,12.0
1979-07-26 21:55:12.000 ,4,1,0.,12.0,0.,12.0,0.,12.0,0.,12.0
1979-07-26 21:55:24.000 ,4,1,0.,12.0,0.,12.0,0.,12.0,0.,12.0
1979-07-26 21:55:36.000 ,0,1,0.,12.0,0.,12.0,0.,12.0,0.,12.0
1979-07-26 21:55:48.000 ,0,1,0.,12.0,0.,12.0,0.,12.0,0.,12.0
1979-07-26 21:56:00.000 ,3,1,0.,12.0,0.,12.0,0.,12.0,0.,12.0
1979-07-26 21:56:12.000 ,3,1,0.,12.0,0.,12.0,0.,12.0,0.,12.0
1979-07-26 21:56:24.000 ,7,1,0.,12.0,0.,12.0,0.,12.0,0.,12.0
1979-07-26 21:56:36.000 ,7,1,0.,12.0,0.,12.0,0.,12.0,0.,12.0
1979-07-26 21:56:48.000 ,4,1,0.,12.0,0.,12.0,0.,12.0,0.,12.0
1979-07-26 21:57:00.000 ,4,1,0.,12.0,0.,12.0,0.,12.0,0.,12.0
1979-07-26 21:57:12.000 ,0,1,0.,12.0,0.,12.0,0.,12.0,0.,12.0
1979-07-26 21:57:24.000 ,0,1,0.,12.0,0.,12.0,0.,12.0,0.,12.0
1979-07-26 21:57:36.000 ,3,1,0.,12.0,0.,12.0,0.,12.0,0.,12.0
1979-07-26 21:57:48.000 ,3,1,0.,12.0,0.,12.0,0.,12.0,0.,12.0
1979-07-26 21:58:00.000 ,7,1,0.,12.0,0.,12.0,0.,12.0,0.,12.0
1979-07-26 21:58:12.000 ,7,1,0.,12.0,0.,12.0,0.,12.0,0.,12.0
1979-07-26 21:58:24.000 ,4,1,0.,12.0,0.,12.0,0.,12.0,0.,12.0
1979-07-26 21:58:36.000 ,4,1,0.,12.0,0.,12.0,0.,12.0,0.,12.0
1979-07-26 21:58:48.000 ,0,1,0.,12.0,0.,12.0,0.,12.0,0.,12.0
1979-07-26 21:59:00.000 ,0,1,0.,12.0,0.,12.0,0.,12.0,0.,12.0
1979-07-26 21:59:12.000 ,3,1,0.,12.0,0.,12.0,0.,12.0,0.,12.0
1979-07-26 21:59:24.000 ,3,1,0.,12.0,0.,12.0,0.,12.0,0.,12.0
1979-07-26 21:59:36.000 ,7,1,0.,12.0,0.,12.0,0.,12.0,0.,12.0
1979-07-26 21:59:48.000 ,7,1,0.,12.0,0.,12.0,0.,12.0,0.,12.0
1979-07-26 22:00:00.000 ,4,1,0.,12.0,0.,12.0,0.,12.0,0.,12.0
1979-07-26 22:00:12.000 ,4,1,0.,12.0,0.,12.0,0.,12.0,0.,12.0
1979-07-26 22:00:24.000 ,0,1,0.,12.0,0.,12.0,0.,12.0,0.,12.0
1979-07-26 22:00:36.000 ,0,1,0.,12.0,0.,12.0,0.,12.0,0.,12.0
1979-07-26 22:00:48.000 ,3,1,0.,12.0,0.,12.0,0.,12.0,0.,12.0
1979-07-26 22:01:00.000 ,3,1,0.,12.0,0.,12.0,0.,12.0,0.,12.0
1979-07-26 22:01:12.000 ,7,1,0.,12.0,0.,12.0,0.,12.0,0.,12.0
1979-07-26 22:01:24.000 ,7,1,0.,12.0,0.,12.0,0.,12.0,0.,12.0
1979-07-26 22:01:36.000 ,4,1,0.,12.0,0.,12.0,0.,12.0,0.,12.0
1979-07-26 22:01:48.000 ,4,1,0.,12.0,0.,12.0,0.,12.0,0.,12.0
1979-07-26 22:02:00.000 ,0,1,0.,12.0,0.,12.0,0.,12.0,0.,12.0
1979-07-26 22:02:12.000 ,0,1,0.,12.0,0.,12.0,0.,12.0,0.,12.0
1979-07-26 22:02:24.000 ,3,1,0.,12.0,0.,12.0,0.,12.0,0.,12.0
1979-07-26 22:02:36.000 ,3,1,0.,12.0,0.,12.0,0.,12.0,0.,12.0
1979-07-26 22:02:48.000 ,7,1,0.,12.0,0.,12.0,0.,12.0,0.,12.0
1979-07-26 22:03:00.000 ,7,1,0.,12.0,0.,12.0,0.,12.0,0.,12.0
1979-07-26 22:03:12.000 ,4,1,0.,12.0,0.,12.0,0.,12.0,0.,12.0
1979-07-26 22:03:24.000 ,4,1,0.,12.0,0.,12.0,0.,12.0,0.,12.0
1979-07-26 22:03:36.000 ,0,1,0.,12.0,0.,12.0,0.,12.0,0.,12.0
1979-07-26 22:03:48.000 ,0,1,0.,12.0,0.,12.0,0.,12.0,0.,12.0
1979-07-26 22:04:00.000 ,3,1,0.,12.0,0.,12.0,0.,12.0,0.,12.0
1979-07-26 22:04:12.000 ,3,1,0.,12.0,0.,12.0,0.,12.0,0.,12.0
1979-07-26 22:04:24.000 ,7,1,0.,12.0,0.,12.0,0.,12.0,0.,12.0
1979-07-26 22:04:36.000 ,7,1,0.,12.0,0.,12.0,0.,12.0,0.,12.0
1979-07-26 22:05:36.000 ,0,0,0.,12.0,0.,12.0,0.,12.0,0.,12.0
1979-07-26 22:05:48.000 ,0,0,0.,12.0,0.,12.0,0.,12.0,0.,12.0
1979-07-26 22:06:00.000 ,0,0,0.,12.0,0.,12.0,0.,12.0,0.,12.0
1979-07-26 22:06:12.000 ,0,0,0.,12.0,0.,12.0,0.,12.0,0.,12.0
1979-07-26 22:06:24.000 ,5,1,0.,12.0,0.,12.0,0.,12.0,0.,12.0
1979-07-26 22:06:36.000 ,5,1,0.,12.0,0.,12.0,0.,12.0,0.,12.0
1979-07-26 22:06:48.000 ,5,0,0.,12.0,0.,12.0,0.,12.0,0.,12.0
1979-07-26 22:07:00.000 ,5,0,0.,12.0,0.,12.0,0.,12.0,0.,12.0
1979-07-26 22:07:12.000 ,4,1,0.,12.0,0.,12.0,0.,12.0,0.,12.0
1979-07-26 22:07:24.000 ,4,1,0.,12.0,0.,12.0,0.,12.0,0.,12.0
1979-07-26 22:07:36.000 ,4,0,0.,12.0,0.,12.0,0.,12.0,0.,12.0
1979-07-26 22:07:48.000 ,4,0,0.,12.0,0.,12.0,0.,12.0,0.,12.0
1979-07-26 22:08:00.000 ,3,1,0.,12.0,0.,12.0,0.,12.0,0.,12.0
1979-07-26 22:08:12.000 ,3,1,0.,12.0,0.,12.0,0.,12.0,0.,12.0
1979-07-26 22:08:24.000 ,3,0,0.,12.0,0.,12.0,0.,12.0,0.,12.0
1979-07-26 22:08:36.000 ,3,0,0.,12.0,0.,12.0,0.,12.0,0.,12.0
1979-07-26 22:08:48.000 ,2,1,0.,12.0,0.,12.0,0.,12.0,0.,12.0
1979-07-26 22:09:00.000 ,2,1,0.,12.0,0.,12.0,0.,12.0,0.,12.0
1979-07-26 22:09:12.000 ,2,0,0.,12.0,0.,12.0,0.,12.0,0.,12.0
1979-07-26 22:09:24.000 ,2,0,0.,12.0,0.,12.0,0.,12.0,0.,12.0
1979-07-26 22:09:36.000 ,1,1,0.,12.0,0.,12.0,0.,12.0,0.,12.0
1979-07-26 22:09:48.000 ,1,1,0.,12.0,0.,12.0,0.,12.0,0.,12.0
1979-07-26 22:10:00.000 ,1,0,0.,12.0,0.,12.0,0.,12.0,0.,12.0
1979-07-26 22:10:12.000 ,1,0,0.,12.0,0.,12.0,0.,12.0,0.,12.0
1979-07-26 22:10:24.000 ,0,1,0.,12.0,0.,12.0,0.,12.0,0.,12.0
1979-07-26 22:10:36.000 ,0,1,0.,12.0,0.,12.0,0.,12.0,0.,12.0
1979-07-26 22:10:48.000 ,0,0,0.,12.0,0.,12.0,0.,12.0,0.,12.0
1979-07-26 22:11:00.000 ,0,0,0.,12.0,0.,12.0,0.,12.0,0.,12.0
1979-07-26 22:11:12.000 ,0,1,0.,12.0,0.,12.0,0.,12.0,0.,12.0
1979-07-26 22:11:24.000 ,0,1,0.,12.0,0.,12.0,0.,12.0,0.,12.0
1979-07-26 22:11:36.000 ,0,0,0.,12.0,0.,12.0,0.,12.0,0.,12.0
1979-07-26 22:11:48.000 ,0,0,0.,12.0,0.,12.0,0.,12.0,0.,12.0
1979-07-26 22:12:00.000 ,1,1,0.,12.0,0.,12.0,0.,12.0,0.,12.0
1979-07-26 22:12:12.000 ,1,1,0.,12.0,0.,12.0,0.,12.0,0.,12.0
1979-07-26 22:12:24.000 ,1,0,0.,12.0,0.,12.0,0.,12.0,0.,12.0
1979-07-26 22:12:36.000 ,1,0,0.,12.0,0.,12.0,0.,12.0,0.,12.0
1979-07-26 22:12:48.000 ,2,1,0.,12.0,0.,12.0,0.,12.0,0.,12.0
1979-07-26 22:13:00.000 ,2,1,0.,12.0,0.,12.0,0.,12.0,0.,12.0
1979-07-26 22:13:12.000 ,2,0,0.,12.0,0.,12.0,0.,12.0,0.,12.0
1979-07-26 22:13:24.000 ,2,0,0.,12.0,0.,12.0,0.,12.0,0.,12.0
1979-07-26 22:13:36.000 ,3,1,0.,12.0,0.,12.0,0.,12.0,0.,12.0
1979-07-26 22:13:48.000 ,3,1,1.,12.0,0.,12.0,0.,12.0,0.,12.0
1979-07-26 22:14:00.000 ,3,0,0.,12.0,0.,12.0,0.,12.0,0.,12.0
1979-07-26 22:14:12.000 ,3,0,0.,12.0,0.,12.0,0.,12.0,0.,12.0
1979-07-26 22:14:24.000 ,4,1,0.,12.0,0.,12.0,0.,12.0,0.,12.0
1979-07-26 22:14:36.000 ,4,1,0.,12.0,0.,12.0,0.,12.0,0.,12.0
1979-07-26 22:14:48.000 ,4,0,0.,12.0,0.,12.0,0.,12.0,0.,12.0
1979-07-26 22:15:00.000 ,4,0,0.,12.0,0.,12.0,0.,12.0,0.,12.0
1979-07-26 22:15:12.000 ,5,1,0.,12.0,0.,12.0,0.,12.0,0.,12.0
1979-07-26 22:15:24.000 ,5,1,0.,12.0,0.,12.0,0.,12.0,0.,12.0
1979-07-26 22:15:36.000 ,5,0,0.,12.0,0.,12.0,0.,12.0,0.,12.0
1979-07-26 22:15:48.000 ,5,0,0.,12.0,0.,12.0,0.,12.0,0.,12.0
1979-07-26 22:16:00.000 ,6,1,0.,12.0,0.,12.0,0.,12.0,0.,12.0
1979-07-26 22:16:12.000 ,6,1,0.,12.0,0.,12.0,0.,12.0,0.,12.0
1979-07-26 22:16:24.000 ,6,0,0.,12.0,0.,12.0,0.,12.0,0.,12.0
1979-07-26 22:16:36.000 ,6,0,0.,12.0,0.,12.0,0.,12.0,0.,12.0
1979-07-26 22:16:48.000 ,7,1,0.,12.0,0.,12.0,0.,12.0,0.,12.0
1979-07-26 22:17:00.000 ,7,1,0.,12.0,0.,12.0,0.,12.0,0.,12.0
1979-07-26 22:17:12.000 ,7,0,0.,12.0,0.,12.0,0.,12.0,0.,12.0
1979-07-26 22:17:24.000 ,7,0,0.,12.0,0.,12.0,0.,12.0,0.,12.0
1979-07-26 22:17:36.000 ,7,1,0.,12.0,0.,12.0,0.,12.0,0.,12.0
1979-07-26 22:17:48.000 ,7,1,0.,12.0,0.,12.0,0.,12.0,0.,12.0
1979-07-26 22:18:00.000 ,7,0,0.,12.0,0.,12.0,0.,12.0,0.,12.0
1979-07-26 22:18:12.000 ,7,0,0.,12.0,0.,12.0,0.,12.0,0.,12.0